This is the latest recevied weather packets stored in our database for station/object KG4LKY-5. If no packets are shown the sender has not sent any weather packets the latest 10 day(s).
| Time | Temp. | Humidity | Pressure | Rain* | Wind** | Luminosity | Snow |
|---|---|---|---|---|---|---|---|
| 1777928472 | 26.11° C | 29% | 1011.1 hPa | 1.78 mm | - | - | - |
| 1777928172 | 25.56° C | 31% | 1011.1 hPa | 1.78 mm | - | - | - |
| 1777927871 | 25° C | 32% | 1011.2 hPa | 1.78 mm | - | - | - |
| 1777927271 | 24.44° C | 32% | 1011.4 hPa | 1.78 mm | - | - | - |
| 1777926971 | 24.44° C | 36% | 1011.4 hPa | 1.78 mm | - | - | - |
| 1777926671 | 23.89° C | 37% | 1011.5 hPa | 1.78 mm | - | - | - |
| 1777926370 | 25.56° C | 33% | 1011.6 hPa | 1.78 mm | - | - | - |
| 1777926070 | 25.56° C | 34% | 1011.6 hPa | 1.78 mm | - | - | - |
| 1777925769 | 24.44° C | 33% | 1011.8 hPa | 1.78 mm | - | - | - |
| 1777925469 | 25° C | 29% | 1011.9 hPa | 1.78 mm | - | - | - |
| 1777925169 | 26.67° C | 29% | 1011.9 hPa | 1.78 mm | - | - | - |
| 1777924568 | 25° C | 33% | 1012.1 hPa | 1.78 mm | - | - | - |
| 1777924268 | 24.44° C | 31% | 1012.2 hPa | 1.78 mm | - | - | - |
| 1777923968 | 25° C | 33% | 1012.2 hPa | 1.78 mm | - | - | - |
| 1777923668 | 23.89° C | 39% | 1012.3 hPa | 1.78 mm | - | - | - |
| 1777922767 | 25.56° C | 36% | 1012.4 hPa | 1.78 mm | - | - | - |
| 1777921864 | 24.44° C | 36% | 1012.7 hPa | 1.78 mm | - | - | - |
| 1777921563 | 24.44° C | 39% | 1012.8 hPa | 1.78 mm | - | - | - |
| 1777921263 | 24.44° C | 38% | 1012.7 hPa | 1.78 mm | - | - | - |
| 1777920963 | 23.89° C | 37% | 1012.8 hPa | 1.78 mm | - | - | - |
| 1777920663 | 25° C | 37% | 1012.9 hPa | 1.78 mm | - | - | - |
| 1777920363 | 25° C | 38% | 1013.2 hPa | 1.78 mm | - | - | - |
| 1777920062 | 23.89° C | 38% | 1013.2 hPa | 1.78 mm | - | - | - |
| 1777919762 | 23.89° C | 36% | 1013.3 hPa | 1.78 mm | - | - | - |
| 1777919462 | 23.33° C | 43% | 1013.4 hPa | 1.78 mm | - | - | - |
* Rain since midnight (hover to see other rain measurements)
** Current wind speed in m/s (hover to see current wind gust speed)